Cambridge, MD

5:39 AM EST on December 03, 2016 (GMT -0500)
Cambridge-Dorchester

Weather History for KCGE - August, 2013

Change the Weather History Date:

Thursday, August 29, 2013

  Actual Average (KESN) Record (KESN)
Temperature  
Mean Temperature 73 °F -  
Max Temperature 82 °F 87 °F 97 °F (1948)
Min Temperature 64 °F 63 °F 52 °F (1965)
Cooling Degree Days 8    
Growing Degree Days 23 (Base 50)    
Moisture  
Dew Point 69 °F    
Average Humidity 81    
Maximum Humidity 100    
Minimum Humidity 62    
Precipitation  
Precipitation 0.00 in - - ()
Sea Level Pressure  
Sea Level Pressure 29.93 in    
Wind  
Wind Speed 4 mph (NE)    
Max Wind Speed 13 mph    
Max Gust Speed 17 mph    
Visibility 8 miles    
Events      
Averages and records for this station are not official NWS values.
T = Trace of Precipitation, MM = Missing Value Source: NWS Daily Summary

Daily Weather History Graph

Daily Weather History Graph

Search for Another Location

Airport or City:

Trip Planner

Search our weather history database for the weather conditions in past years. The results will help you decide how hot, cold, wet, or windy it might be!

Date:

Astronomy

Aug. 29, 2013 Rise Set
Actual Time 6:30 AM EDT 7:38 PM EDT
Civil Twilight 6:03 AM EDT 8:05 PM EDT
Nautical Twilight 5:31 AM EDT 8:38 PM EDT
Astronomical Twilight 4:57 AM EDT 9:11 PM EDT
Moon 12:22 AM EDT (8/29) 3:02 PM EDT (8/29)
Length of Visible Light 14h 01m
Length of Day
13h 07m
Last Quarter, 38% of the Moon is Illuminated
Aug 29
Last Quarter
Sep 5
New
Sep 12
First Quarter
Sep 19
Full
Sep 26
Last Quarter

Hourly Weather History & Observations

Time (EDT) Temp. Heat Index Dew Point Humidity Pressure Visibility Wind Dir Wind Speed Gust Speed Precip Events Conditions
12:09 AM 71.6 °F - 71.6 °F 100% 29.83 in 4.0 mi Calm Calm - N/A   Mostly Cloudy
12:29 AM 73.4 °F - 71.6 °F 94% 29.84 in 3.0 mi Calm Calm - N/A   Overcast
12:49 AM 73.4 °F - 71.6 °F 94% 29.84 in 2.5 mi NNE 3.5 mph - N/A   Overcast
1:09 AM 73.4 °F - 71.6 °F 94% 29.83 in 4.0 mi Calm Calm - N/A   Mostly Cloudy
1:29 AM 73.4 °F - 71.6 °F 94% 29.84 in 3.0 mi Calm Calm - N/A   Mostly Cloudy
1:49 AM 73.4 °F - 71.6 °F 94% 29.83 in 3.0 mi Calm Calm - N/A   Overcast
2:09 AM 71.6 °F - 69.8 °F 94% 29.83 in 3.0 mi NE 3.5 mph - N/A   Overcast
2:29 AM 71.6 °F - 69.8 °F 94% 29.83 in 3.0 mi NE 4.6 mph - N/A   Mostly Cloudy
2:49 AM 71.6 °F - 69.8 °F 94% 29.83 in 3.0 mi NE 4.6 mph - N/A   Overcast
3:09 AM 71.6 °F - 69.8 °F 94% 29.83 in 3.0 mi Calm Calm - N/A   Unknown
3:29 AM 73.4 °F - 71.6 °F 94% 29.83 in 3.0 mi Calm Calm - N/A   Unknown
3:49 AM 73.4 °F - 71.6 °F 94% 29.83 in 4.0 mi North 4.6 mph - N/A   Mostly Cloudy
4:09 AM 73.4 °F - 71.6 °F 94% 29.83 in 4.0 mi North 10.4 mph - N/A   Overcast
4:29 AM 73.4 °F - 71.6 °F 94% 29.84 in 5.0 mi NNE 6.9 mph - N/A   Mostly Cloudy
4:49 AM 73.4 °F - 71.6 °F 94% 29.84 in 5.0 mi NNE 5.8 mph - N/A   Mostly Cloudy
5:09 AM 73.4 °F - 71.6 °F 94% 29.85 in 4.0 mi NE 6.9 mph - N/A   Overcast
5:29 AM 73.4 °F - 69.8 °F 88% 29.85 in 4.0 mi NE 6.9 mph - N/A   Overcast
5:49 AM 71.6 °F - 69.8 °F 94% 29.86 in 4.0 mi Calm Calm - N/A   Mostly Cloudy
6:09 AM 71.6 °F - 69.8 °F 94% 29.87 in 4.0 mi NNE 4.6 mph - N/A   Scattered Clouds
6:29 AM 73.4 °F - 69.8 °F 88% 29.88 in 4.0 mi NE 5.8 mph - N/A   Mostly Cloudy
6:49 AM 73.4 °F - 69.8 °F 88% 29.89 in 5.0 mi NNE 6.9 mph - N/A   Overcast
7:09 AM 73.4 °F - 69.8 °F 88% 29.89 in 5.0 mi NNE 6.9 mph - N/A   Mostly Cloudy
7:29 AM 73.4 °F - 69.8 °F 88% 29.89 in 5.0 mi NNE 5.8 mph - N/A   Mostly Cloudy
7:50 AM 73.4 °F - 69.8 °F 88% 29.90 in 5.0 mi NNE 5.8 mph - N/A   Overcast
8:10 AM 73.4 °F - 69.8 °F 88% 29.91 in 5.0 mi NNE 4.6 mph - N/A   Overcast
8:30 AM 75.2 °F - 71.6 °F 89% 29.91 in 5.0 mi NNE 5.8 mph - N/A   Overcast
8:50 AM 75.2 °F - 71.6 °F 89% 29.92 in 5.0 mi NE 4.6 mph - N/A   Mostly Cloudy
9:10 AM 75.2 °F - 71.6 °F 89% 29.92 in 5.0 mi NNE 4.6 mph - N/A   Mostly Cloudy
9:30 AM 75.2 °F - 69.8 °F 83% 29.92 in 7.0 mi North 4.6 mph - N/A   Mostly Cloudy
9:50 AM 78.8 °F - 71.6 °F 78% 29.92 in 7.0 mi NNE 5.8 mph - N/A   Mostly Cloudy
10:10 AM 78.8 °F - 69.8 °F 74% 29.92 in 10.0 mi ENE 4.6 mph - N/A   Mostly Cloudy
10:30 AM 78.8 °F - 69.8 °F 74% 29.93 in 10.0 mi ENE 10.4 mph 17.3 mph N/A   Mostly Cloudy
10:50 AM 80.6 °F 83.9 °F 69.8 °F 70% 29.93 in 10.0 mi ENE 8.1 mph - N/A   Mostly Cloudy
11:10 AM 78.8 °F - 69.8 °F 74% 29.94 in 10.0 mi ENE 9.2 mph - N/A   Mostly Cloudy
11:30 AM 78.8 °F - 69.8 °F 74% 29.94 in 10.0 mi NNE 8.1 mph - N/A   Scattered Clouds
11:50 AM 80.6 °F 83.2 °F 68.0 °F 65% 29.95 in 10.0 mi NNE 8.1 mph - N/A   Scattered Clouds
12:10 PM 80.6 °F 83.9 °F 69.8 °F 70% 29.95 in 10.0 mi NE 9.2 mph - N/A   Mostly Cloudy
12:30 PM 80.6 °F 83.2 °F 68.0 °F 65% 29.95 in 10.0 mi North 12.7 mph - N/A   Mostly Cloudy
12:50 PM 80.6 °F 83.2 °F 68.0 °F 65% 29.95 in 10.0 mi NNE 6.9 mph - N/A   Mostly Cloudy
1:10 PM 82.4 °F 85.4 °F 68.0 °F 62% 29.95 in 10.0 mi NE 9.2 mph - N/A   Scattered Clouds
1:30 PM 80.6 °F 83.2 °F 68.0 °F 65% 29.96 in 10.0 mi NNE 9.2 mph - N/A   Scattered Clouds
1:50 PM 80.6 °F 83.2 °F 68.0 °F 65% 29.96 in 10.0 mi North 9.2 mph - N/A   Mostly Cloudy
2:10 PM 80.6 °F 83.2 °F 68.0 °F 65% 29.96 in 10.0 mi NE 8.1 mph - N/A   Mostly Cloudy
2:30 PM 80.6 °F 83.2 °F 68.0 °F 65% 29.96 in 10.0 mi NE 5.8 mph - N/A   Mostly Cloudy
2:50 PM 82.4 °F 85.4 °F 68.0 °F 62% 29.96 in 10.0 mi East 8.1 mph - N/A   Scattered Clouds
3:10 PM 82.4 °F 85.4 °F 68.0 °F 62% 29.96 in 10.0 mi East 9.2 mph 16.1 mph N/A   Scattered Clouds
3:30 PM 82.4 °F 85.4 °F 68.0 °F 62% 29.96 in 10.0 mi East 11.5 mph - N/A   Scattered Clouds
3:50 PM 80.6 °F 83.2 °F 68.0 °F 65% 29.96 in 10.0 mi ENE 6.9 mph - N/A   Scattered Clouds
4:10 PM 80.6 °F 83.2 °F 68.0 °F 65% 29.97 in 10.0 mi East 10.4 mph - N/A   Mostly Cloudy
4:31 PM 80.6 °F 83.2 °F 68.0 °F 65% 29.97 in 10.0 mi ENE 11.5 mph 16.1 mph N/A   Scattered Clouds
4:51 PM 80.6 °F 83.2 °F 68.0 °F 65% 29.97 in 10.0 mi East 9.2 mph - N/A   Scattered Clouds
5:11 PM 78.8 °F - 68.0 °F 69% 29.98 in 10.0 mi ENE 4.6 mph - N/A   Scattered Clouds
5:31 PM 78.8 °F - 68.0 °F 69% 29.98 in 10.0 mi East 8.1 mph - N/A   Scattered Clouds
5:51 PM 78.8 °F - 66.2 °F 65% 29.98 in 10.0 mi East 8.1 mph - N/A   Scattered Clouds
6:11 PM 78.8 °F - 66.2 °F 65% 29.98 in 10.0 mi East 8.1 mph - N/A   Mostly Cloudy
6:31 PM 78.8 °F - 68.0 °F 69% 29.98 in 10.0 mi East 5.8 mph - N/A   Scattered Clouds
6:51 PM 75.2 °F - 66.2 °F 73% 29.99 in 10.0 mi East 3.5 mph - N/A   Clear
7:11 PM 75.2 °F - 66.2 °F 73% 29.99 in 10.0 mi East 4.6 mph - N/A   Clear
7:31 PM 75.2 °F - 68.0 °F 78% 30.00 in 10.0 mi East 4.6 mph - N/A   Clear
7:51 PM 73.4 °F - 66.2 °F 78% 30.01 in 10.0 mi ESE 4.6 mph - N/A   Clear
8:11 PM 71.6 °F - 66.2 °F 83% 30.01 in 10.0 mi East 3.5 mph - N/A   Clear
8:31 PM 69.8 °F - 64.4 °F 83% 30.02 in 10.0 mi ESE 5.8 mph - N/A   Clear
8:51 PM 69.8 °F - 64.4 °F 83% 30.02 in 10.0 mi ESE 5.8 mph - N/A   Clear
9:11 PM 69.8 °F - 64.4 °F 83% 30.02 in 10.0 mi ESE 4.6 mph - N/A   Clear
9:31 PM 69.8 °F - 64.4 °F 83% 30.03 in 10.0 mi Calm Calm - N/A   Clear
9:51 PM 69.8 °F - 66.2 °F 88% 30.03 in 10.0 mi Calm Calm - N/A   Clear
10:11 PM 69.8 °F - 64.4 °F 83% 30.03 in 10.0 mi Calm Calm - N/A   Clear
10:31 PM 68.0 °F - 64.4 °F 88% 30.03 in 10.0 mi Calm Calm - N/A   Clear
10:51 PM 68.0 °F - 64.4 °F 88% 30.03 in 10.0 mi Calm Calm - N/A   Clear
11:11 PM 64.4 °F - 62.6 °F 94% 30.03 in 10.0 mi Calm Calm - N/A   Clear
11:31 PM 64.4 °F - 62.6 °F 94% 30.03 in 10.0 mi Calm Calm - N/A   Clear
11:51 PM 64.4 °F - 62.6 °F 94% 30.03 in 10.0 mi Calm Calm - N/A   Clear